Mora, MN

9:49 PM CST on February 18, 2018 (GMT -0600)
Mora Municipal

Weather History for KJMR - February, 2014

Change the Weather History Date:

Sunday, February 2, 2014

  Actual Average Record
Temperature  
Mean Temperature -4 °F -  
Max Temperature 14 °F 20 °F 45 °F (1935)
Min Temperature -23 °F -4 °F -38 °F (1988)
Degree Days  
Heating Degree Days 70    
Moisture  
Dew Point -12 °F    
Average Humidity 69    
Maximum Humidity 84    
Minimum Humidity 53    
Precipitation  
Precipitation 0.00 in - - ()
Sea Level Pressure  
Sea Level Pressure 30.21 in    
Wind  
Wind Speed 3 mph (SW)    
Max Wind Speed 13 mph    
Max Gust Speed -    
Visibility 10 miles    
Events      
Averages and records for this station are not official NWS values.
T = Trace of Precipitation, MM = Missing Value Source: NWS Daily Summary

Daily Weather History Graph

Daily Weather History Graph

Search for Another Location

Airport or City:

Trip Planner

Search our weather history database for the weather conditions in past years. The results will help you decide how hot, cold, wet, or windy it might be!

Date:

Astronomy

Feb. 02, 2014 Rise Set
Actual Time 7:33 AM CST 5:20 PM CST
Civil Twilight 7:02 AM CST 5:52 PM CST
Nautical Twilight 6:26 AM CST 6:27 PM CST
Astronomical Twilight 5:51 AM CST 7:02 PM CST
Moon 8:48 AM CST (2/2) 9:19 PM CST (2/2)
Length of Visible Light 10h 50m
Length of Day
9h 46m
Waxing Crescent, 11% of the Moon is Illuminated
Feb 2
Waxing Crescent
Feb 6
First Quarter
Feb 14
Full
Feb 22
Last Quarter
Mar 1
New

Hourly Weather History & Observations

Time (CST) Temp. Windchill Dew Point Humidity Pressure Visibility Wind Dir Wind Speed Gust Speed Precip Events Conditions
12:12 AM -4.0 °F -14.6 °F -9.4 °F 78% 30.20 in 10.0 mi WNW 4.6 mph - N/A   Clear
12:32 AM -4.0 °F -12.4 °F -11.2 °F 71% 30.20 in 10.0 mi WNW 3.5 mph - N/A   Clear
12:52 AM -5.8 °F -14.5 °F -13.0 °F 71% 30.21 in 10.0 mi West 3.5 mph - N/A   Clear
1:12 AM -7.6 °F -16.5 °F -13.0 °F 77% 30.20 in 10.0 mi West 3.5 mph - N/A   Clear
1:32 AM -7.6 °F -18.8 °F -14.8 °F 71% 30.20 in 10.0 mi West 4.6 mph - N/A   Clear
1:52 AM -7.6 °F - -13.0 °F 77% 30.21 in 10.0 mi Calm Calm - N/A   Clear
2:12 AM -11.2 °F - -16.6 °F 77% 30.21 in 10.0 mi Calm Calm - N/A   Clear
2:32 AM -14.8 °F - -18.4 °F 84% 30.21 in 10.0 mi Calm Calm - N/A   Clear
2:52 AM -13.0 °F - -18.4 °F 77% 30.21 in 10.0 mi Calm Calm - N/A   Clear
3:12 AM -16.6 °F - -22.0 °F 76% 30.21 in 10.0 mi Calm Calm - N/A   Clear
3:32 AM -14.8 °F - -22.0 °F 70% 30.21 in 10.0 mi Calm Calm - N/A   Clear
3:52 AM -16.6 °F - -23.8 °F 70% 30.21 in 10.0 mi Calm Calm - N/A   Clear
4:12 AM -14.8 °F - -22.0 °F 70% 30.21 in 10.0 mi Calm Calm - N/A   Clear
4:32 AM -18.4 °F - -23.8 °F 76% 30.22 in 10.0 mi Calm Calm - N/A   Clear
4:52 AM -16.6 °F - -23.8 °F 70% 30.22 in 10.0 mi Calm Calm - N/A   Clear
5:12 AM -20.2 °F - -27.4 °F 69% 30.22 in 10.0 mi Calm Calm - N/A   Clear
5:32 AM -18.4 °F - -25.6 °F 70% 30.22 in 10.0 mi Calm Calm - N/A   Clear
5:52 AM -22.0 °F - -27.4 °F 76% 30.23 in 10.0 mi Calm Calm - N/A   Clear
6:12 AM -20.2 °F - -27.4 °F 69% 30.23 in 10.0 mi Calm Calm - N/A   Clear
6:32 AM -22.0 °F - -27.4 °F 76% 30.23 in 10.0 mi Calm Calm - N/A   Clear
6:52 AM -22.0 °F - -29.2 °F 69% 30.24 in 10.0 mi Calm Calm - N/A   Clear
7:12 AM -23.8 °F - -31.0 °F 69% 30.24 in 10.0 mi Calm Calm - N/A   Clear
7:32 AM -23.8 °F - -31.0 °F 69% 30.24 in 10.0 mi Calm Calm - N/A   Clear
7:52 AM -23.8 °F - -31.0 °F 69% 30.24 in 10.0 mi Calm Calm - N/A   Clear
8:12 AM -20.2 °F - -27.4 °F 69% 30.25 in 10.0 mi Calm Calm - N/A   Clear
8:32 AM -16.6 °F - -23.8 °F 70% 30.25 in 10.0 mi Calm Calm - N/A   Clear
8:52 AM -16.6 °F - -23.8 °F 70% 30.25 in 10.0 mi Calm Calm - N/A   Clear
9:12 AM -9.4 °F - -14.8 °F 77% 30.24 in 10.0 mi Calm Calm - N/A   Clear
9:32 AM -7.6 °F - -14.8 °F 71% 30.24 in 10.0 mi Calm Calm - N/A   Mostly Cloudy
9:52 AM -4.0 °F -14.6 °F -9.4 °F 78% 30.24 in 10.0 mi SSW 4.6 mph - N/A   Scattered Clouds
10:12 AM -0.4 °F - -7.6 °F 72% 30.24 in 10.0 mi Calm Calm - N/A   Clear
10:32 AM 1.4 °F -9.9 °F -7.6 °F 66% 30.24 in 10.0 mi SW 5.8 mph - N/A   Clear
10:52 AM 1.4 °F -9.9 °F -5.8 °F 72% 30.24 in 10.0 mi WSW 5.8 mph - N/A   Clear
11:12 AM 5.0 °F -5.6 °F -4.0 °F 66% 30.24 in 10.0 mi SW 5.8 mph - N/A   Clear
11:32 AM 6.8 °F -2.0 °F -2.2 °F 67% 30.24 in 10.0 mi South 4.6 mph - N/A   Clear
11:52 AM 6.8 °F -3.5 °F -2.2 °F 67% 30.23 in 10.0 mi SW 5.8 mph - N/A   Clear
12:12 PM 8.6 °F -3.7 °F -2.2 °F 62% 30.23 in 10.0 mi SSW 8.1 mph - N/A   Clear
12:32 PM 10.4 °F -1.5 °F -0.4 °F 62% 30.22 in 10.0 mi SW 8.1 mph - N/A   Mostly Cloudy
12:52 PM 10.4 °F -0.4 °F -0.4 °F 62% 30.21 in 10.0 mi SSW 6.9 mph - N/A   Overcast
1:12 PM 12.2 °F -0.2 °F -0.4 °F 57% 30.20 in 10.0 mi SSW 9.2 mph - N/A   Mostly Cloudy
1:32 PM 12.2 °F 0.7 °F -2.2 °F 53% 30.20 in 10.0 mi SW 8.1 mph - N/A   Scattered Clouds
1:52 PM 12.2 °F 0.7 °F -2.2 °F 53% 30.20 in 10.0 mi SW 8.1 mph - N/A   Clear
2:12 PM 12.2 °F 1.7 °F -2.2 °F 53% 30.19 in 10.0 mi SW 6.9 mph - N/A   Clear
2:32 PM 12.2 °F 0.7 °F -2.2 °F 53% 30.19 in 10.0 mi SW 8.1 mph - N/A   Clear
2:52 PM 12.2 °F -1.0 °F -2.2 °F 53% 30.20 in 10.0 mi SW 10.4 mph - N/A   Clear
3:12 PM 12.2 °F -1.8 °F -2.2 °F 53% 30.20 in 10.0 mi SW 11.5 mph - N/A   Clear
3:32 PM 14.0 °F 0.5 °F -0.4 °F 53% 30.21 in 10.0 mi SW 11.5 mph - N/A   Clear
3:52 PM 12.2 °F -2.5 °F -2.2 °F 53% 30.21 in 10.0 mi SSW 12.7 mph - N/A   Clear
4:12 PM 12.2 °F 0.7 °F -0.4 °F 57% 30.20 in 10.0 mi SW 8.1 mph - N/A   Clear
4:32 PM 12.2 °F -1.0 °F -0.4 °F 57% 30.20 in 10.0 mi SW 10.4 mph - N/A   Clear
4:52 PM 12.2 °F -1.0 °F -0.4 °F 57% 30.20 in 10.0 mi SSW 10.4 mph - N/A   Clear
5:12 PM 10.4 °F -0.4 °F -0.4 °F 62% 30.21 in 10.0 mi SW 6.9 mph - N/A   Clear
5:32 PM 8.6 °F -1.3 °F -2.2 °F 62% 30.21 in 10.0 mi SSW 5.8 mph - N/A   Clear
5:52 PM 6.8 °F -3.5 °F -4.0 °F 61% 30.21 in 10.0 mi SW 5.8 mph - N/A   Clear
6:12 PM 6.8 °F -2.0 °F -2.2 °F 67% 30.20 in 10.0 mi SSW 4.6 mph - N/A   Clear
6:32 PM 6.8 °F -2.0 °F -2.2 °F 67% 30.19 in 10.0 mi South 4.6 mph - N/A   Clear
6:52 PM 3.2 °F -4.2 °F -4.0 °F 72% 30.19 in 10.0 mi SSW 3.5 mph - N/A   Clear
7:12 PM 3.2 °F -6.2 °F -5.8 °F 66% 30.19 in 10.0 mi SSW 4.6 mph - N/A   Clear
7:32 PM 1.4 °F -8.3 °F -5.8 °F 72% 30.19 in 10.0 mi SSW 4.6 mph - N/A   Clear
7:52 PM 1.4 °F -8.3 °F -5.8 °F 72% 30.18 in 10.0 mi SSW 4.6 mph - N/A   Clear
8:12 PM 1.4 °F -8.3 °F -5.8 °F 72% 30.18 in 10.0 mi SSW 4.6 mph - N/A   Clear
8:32 PM -0.4 °F - -5.8 °F 78% 30.17 in 10.0 mi Calm Calm - N/A   Clear
8:52 PM -0.4 °F - -5.8 °F 78% 30.17 in 10.0 mi Calm Calm - N/A   Clear
9:12 PM -4.0 °F - -9.4 °F 78% 30.17 in 10.0 mi Calm Calm - N/A   Clear
9:32 PM -5.8 °F - -13.0 °F 71% 30.17 in 10.0 mi Calm Calm - N/A   Clear
9:52 PM -7.6 °F - -13.0 °F 77% 30.17 in 10.0 mi Calm Calm - N/A   Clear
10:12 PM -9.4 °F - -14.8 °F 77% 30.17 in 10.0 mi Calm Calm - N/A   Clear
10:32 PM -9.4 °F - -14.8 °F 77% 30.17 in 10.0 mi Calm Calm - N/A   Clear
10:52 PM -9.4 °F - -14.8 °F 77% 30.17 in 10.0 mi Calm Calm - N/A   Clear
11:12 PM -13.0 °F - -18.4 °F 77% 30.17 in 10.0 mi Calm Calm - N/A   Clear
11:32 PM -13.0 °F - -16.6 °F 84% 30.17 in 10.0 mi Calm Calm - N/A   Clear
11:52 PM -13.0 °F - -18.4 °F 77% 30.17 in 10.0 mi Calm Calm - N/A   Clear